User: anonymous   Login
Location: Unspecified
(0.0000°N, 0.0000°E)
Time: 22:02:04
(UTC+00:00)
Language:

ISS - Orbit

View from above orbital plane
View from above orbital plane
View from above satellite
View from above satellite

Ground track
Ground track

The orbit data is extracted from the following two-line orbital elements,

1 25544U 98067A   17146.55696774  .00016717  00000-0  10270-3 0  9027
2 25544  51.6360 146.1378 0005028 199.0779 161.0186 15.53940364 18383
Epoch (UTC): 26 May 2017 13:22:02
Eccentricity: 0.0005028
inclination: 51.6360°
perigee height: 402 km
apogee height: 408 km
right ascension of ascending node: 146.1378°
argument of perigee: 199.0779°
revolutions per day: 15.53940364
mean anomaly at epoch: 161.0186°
orbit number at epoch: 1838

The dashed part of the orbit path shows where the satellite is in the earth's shadow,  

DLR